QPF
0.00 0.00 0.00 0.00 0.00 0.00 0.00 0.00 0.00 0.00 0.00 0.00 0.00 0.00 0.00 0.00 0.00 0.00 0.00 0.00 0.00 0.00 0.00 0.00 0.00 0.00 0.00 0.00 0.00 0.00 0.00 0.00 0.00 0.00 0.00 0.00 0.00 0.00 0.00 0.00 0.00 0.00 0.00
0.00 0.00 0.00 0.00 0.00 0.00 0.00 0.00 0.00 0.00 0.00 0.00 0.00 0.00 0.00 0.00 0.00 0.00 0.00 0.00 0.00 0.00 0.00 0.00 0.00 0.00 0.00 0.00 0.00 0.00 0.00 0.00 0.00 0.00 0.00 0.00 0.00 0.00 0.00 0.00 0.00 0.00 0.00
0.00 0.00 0.00 0.00 0.00 0.00 0.00 0.00 0.00 0.00 0.00 0.00 0.00 0.00 0.00 0.00 0.00 0.00 0.00 0.00 0.00 0.00 0.00 0.00 0.00 0.00 0.00 0.00 0.00 0.00 0.00 0.00 0.00 0.00 0.00 0.00 0.00 0.00 0.00 0.00 0.00 0.00 0.00
0.00 0.00 0.00 0.00 0.00 0.00 0.00 0.00 0.00 0.00 0.00 0.00 0.00 0.00 0.00 0.00 0.00 0.00 0.00 0.00 0.00 0.00 0.00 0.00 0.00 0.00 0.00 0.00 0.00 0.00 0.00 0.00 0.00 0.00 0.00 0.00 0.00 0.00 0.00 0.00 0.00 0.00 0.00
0.00 0.00 0.00 0.00 0.00 0.00 0.00 0.00 0.00 0.00 0.00 0.00 0.00 0.00 0.00 0.00 0.00 0.00 0.00 0.00 0.00 0.00 0.00 0.00 0.00 0.00 0.00 0.00 0.00 0.00 0.00 0.00 0.00 0.00 0.00 0.00 0.00 0.00 0.00 0.00 0.00 0.00 0.00
0.00 0.00 0.00 0.00 0.00 0.00 0.00 0.00 0.00 0.00 0.00 0.00 0.00 0.00 0.00 0.00 0.00 0.00 0.00 0.00 0.00 0.00 0.00 0.00 0.00 0.00 0.00 0.00 0.00 0.00 0.00 0.00 0.00 0.00 0.00 0.00 0.00 0.00 0.00 0.00 0.00 0.00 0.00
0.00 0.00 0.00 0.00 0.00 0.00 0.00 0.00 0.00 0.00 0.00 0.00 0.00 0.00 0.00 0.00 0.00 0.00 0.00 0.00 0.00 0.00 0.00 0.00 0.00 0.00 0.00 0.00 0.00 0.00 0.00 0.00 0.00 0.00 0.00 0.00 0.00 0.00 0.00 0.00 0.00 0.00 0.00
0.00 0.00 0.00 0.00 0.00 0.00 0.00 0.00 0.00 0.00 0.00 0.00 0.00 0.00 0.00 0.00 0.00 0.00 0.00 0.00 0.00 0.00 0.00 0.00 0.00 0.00 0.00 0.00 0.00 0.00 0.00 0.00 0.00 0.00 0.00 0.00 0.00 0.00 0.00 0.00 0.00 0.00 0.00
0.00 0.00 0.00 0.00 0.00 0.00 0.00 0.00 0.00 0.00 0.00 0.00 0.00 0.00 0.00 0.00 0.00 0.00 0.00 0.00 0.00 0.00 0.00 0.00 0.00 0.00 0.00 0.00 0.00 0.00 0.00 0.00 0.00 0.00 0.00 0.00 0.00 0.00 0.00 0.00 0.00 0.00 0.00
0.00 0.00 0.00 0.00 0.00 0.00 0.00 0.00 0.00 0.00 0.00 0.00 0.00 0.00 0.00 0.00 0.00 0.00 0.00 0.00 0.00 0.00 0.00 0.00 0.00 0.00 0.00 0.00 0.00 0.00 0.00 0.00 0.00 0.00 0.00 0.00 0.00 0.00 0.00 0.00 0.00 0.00 0.00
0.00 0.00 0.00 0.00 0.00 0.00 0.00 0.00 0.00 0.00 0.00 0.00 0.00 0.00 0.00 0.00 0.00 0.00 0.00 0.00 0.00 0.00 0.00 0.00 0.00 0.00 0.00 0.00 0.00 0.00 0.00 0.00 0.00 0.00 0.00 0.00 0.00 0.00 0.00 0.00 0.00 0.00 0.00
0.00 0.00 0.00 0.00 0.00 0.00 0.00 0.00 0.00 0.00 0.00 0.00 0.00 0.00 0.00 0.00 0.00 0.00 0.00 0.00 0.00 0.00 0.00 0.00 0.00 0.00 0.00 0.00 0.00 0.00 0.00 0.00 0.00 0.00 0.00 0.00 0.00 0.00 0.00 0.00 0.00 0.00 0.00
0.00 0.00 0.00 0.00 0.00 0.00 0.00 0.00 0.00 0.00 0.00 0.00 0.00 0.00 0.00 0.00 0.00 0.00 0.00 0.00 0.00 0.00 0.00 0.00 0.00 0.00 0.00 0.00 0.00 0.00 0.00 0.00 0.00 0.00 0.00 0.00 0.00 0.00 0.00 0.00 0.00 0.00 0.00
0.00 0.00 0.00 0.00 0.00 0.00 0.00 0.00 0.00 0.00 0.00 0.00 0.00 0.00 0.00 0.00 0.00 0.00 0.00 0.00 0.00 0.00 0.00 0.00 0.00 0.00 0.00 0.00 0.00 0.00 0.00 0.00 0.00 0.00 0.00 0.00 0.00 0.00 0.00 0.00 0.00 0.00 0.00
0.00 0.00 0.00 0.00 0.00 0.00 0.00 0.00 0.00 0.00 0.00 0.00 0.00 0.00 0.00 0.00 0.00 0.00 0.00 0.00 0.00 0.00 0.00 0.00 0.00 0.00 0.00 0.00 0.00 0.00 0.00 0.00 0.00 0.00 0.00 0.00 0.00 0.00 0.00 0.00 0.00 0.00 0.00
0.00 0.00 0.00 0.00 0.00 0.00 0.00 0.00 0.00 0.00 0.00 0.00 0.00 0.00 0.00 0.00 0.00 0.00 0.00 0.00 0.00 0.00 0.00 0.00 0.00 0.00 0.00 0.00 0.00 0.00 0.00 0.00 0.00 0.00 0.00 0.00 0.00 0.00 0.00 0.00 0.00 0.00 0.00
0.00 0.00 0.00 0.00 0.00 0.00 0.00 0.00 0.00 0.00 0.00 0.00 0.00 0.00 0.00 0.00 0.00 0.00 0.00 0.00 0.00 0.00 0.00 0.00 0.00 0.00 0.00 0.00 0.00 0.00 0.00 0.00 0.00 0.00 0.00 0.00 0.00 0.00 0.00 0.00 0.00 0.00 0.00
0.00 0.00 0.00 0.00 0.00 0.00 0.00 0.00 0.00 0.00 0.00 0.00 0.00 0.00 0.00 0.00 0.00 0.00 0.00 0.00 0.00 0.00 0.00 0.00 0.00 0.00 0.00 0.00 0.00 0.00 0.00 0.00 0.00 0.00 0.00 0.00 0.00 0.00 0.00 0.00 0.00 0.00 0.00
0.00 0.00 0.00 0.00 0.00 0.00 0.00 0.00 0.00 0.00 0.00 0.00 0.00 0.00 0.00 0.00 0.00 0.00 0.00 0.00 0.00 0.00 0.00 0.00 0.00 0.00 0.00 0.00 0.00 0.00 0.00 0.00 0.00 0.00 0.00 0.00 0.00 0.00 0.00 0.00 0.00 0.00 0.00
0.00 0.00 0.00 0.00 0.00 0.00 0.00 0.00 0.00 0.00 0.00 0.00 0.00 0.00 0.00 0.00 0.00 0.00 0.00 0.00 0.00 0.00 0.00 0.00 0.00 0.00 0.00 0.00 0.00 0.00 0.00 0.00 0.00 0.00 0.00 0.00 0.00 0.00 0.00 0.00 0.00 0.00 0.00
0.00 0.00 0.00 0.00 0.00 0.00 0.00 0.00 0.00 0.00 0.00 0.00 0.00 0.00 0.00 0.00 0.00 0.00 0.00 0.00 0.00 0.00 0.00 0.00 0.00 0.00 0.00 0.00 0.00 0.00 0.00 0.00 0.00 0.00 0.00 0.00 0.00 0.00 0.00 0.00 0.00 0.00 0.00
0.00 0.00 0.00 0.00 0.00 0.00 0.00 0.00 0.00 0.00 0.00 0.00 0.00 0.00 0.00 0.00 0.00 0.00 0.00 0.00 0.00 0.00 0.00 0.00 0.00 0.00 0.00 0.00 0.00 0.00 0.00 0.00 0.00 0.00 0.00 0.00 0.00 0.00 0.00 0.00 0.00 0.00 0.00
0.00 0.00 0.00 0.00 0.00 0.00 0.00 0.00 0.00 0.00 0.00 0.00 0.00 0.00 0.00 0.00 0.00 0.00 0.00 0.00 0.00 0.00 0.00 0.00 0.00 0.00 0.00 0.00 0.00 0.00 0.00 0.00 0.00 0.00 0.00 0.00 0.00 0.00 0.00 0.00 0.00 0.00 0.00
0.00 0.00 0.00 0.00 0.00 0.00 0.00 0.00 0.00 0.00 0.00 0.00 0.00 0.00 0.00 0.00 0.00 0.00 0.00 0.00 0.00 0.00 0.00 0.00 0.00 0.00 0.00 0.00 0.00 0.00 0.00 0.00 0.00 0.00 0.00 0.00 0.00 0.00 0.00 0.00 0.00 0.00 0.00
0.00 0.00 0.00 0.00 0.00 0.00 0.00 0.00 0.00 0.00 0.00 0.00 0.00 0.00 0.00 0.00 0.00 0.00 0.00 0.00 0.00 0.00 0.00 0.00 0.00 0.00 0.00 0.00 0.00 0.00 0.00 0.00 0.00 0.00 0.00 0.00 0.00 0.00 0.00 0.00 0.00 0.00 0.00
0.00 0.00 0.00 0.00 0.00 0.00 0.00 0.00 0.00 0.00 0.00 0.00 0.00 0.00 0.00 0.00 0.00 0.00 0.00 0.00 0.00 0.00 0.00 0.00 0.00 0.00 0.00 0.00 0.00 0.00 0.00 0.00 0.00 0.00 0.00 0.00 0.00 0.00 0.00 0.00 0.00 0.00 0.00
MSLP
1020.50 1021.17 1021.75 1022.34 1022.70 1023.35 1023.63 1023.85 1024.26 1024.93 1025.19 1025.04 1025.63 1025.97 1026.45 1026.64 1026.93 1027.14 1027.36 1027.43 1027.27 1027.17 1027.16 1026.76 1026.60 1026.62 1026.51 1026.42 1026.38 1026.36 1026.25 1026.15 1025.97 1025.83 1025.66 1025.48 1025.27 1025.04 1024.82 1024.63 1024.40 1024.13 1023.92
1020.43 1021.09 1021.83 1022.47 1022.80 1023.32 1023.74 1023.88 1024.62 1025.21 1025.07 1025.49 1025.97 1026.38 1026.47 1026.79 1027.04 1027.08 1027.63 1027.85 1027.69 1027.67 1027.53 1027.29 1027.09 1026.90 1026.82 1026.71 1026.59 1026.56 1026.53 1026.45 1026.26 1026.09 1025.91 1025.75 1025.46 1025.21 1025.00 1024.71 1024.47 1024.23 1023.93
1020.33 1021.08 1021.73 1022.52 1022.77 1023.26 1023.69 1024.08 1025.19 1025.23 1025.39 1025.78 1026.21 1026.54 1026.70 1027.14 1027.37 1027.25 1027.53 1028.10 1028.22 1027.91 1027.74 1027.52 1027.46 1027.29 1027.09 1026.93 1026.74 1026.66 1026.65 1026.60 1026.39 1026.24 1026.11 1025.88 1025.57 1025.27 1025.00 1024.68 1024.40 1024.13 1023.77
1020.17 1020.82 1021.49 1022.29 1022.56 1023.19 1023.68 1024.70 1025.27 1025.75 1025.87 1026.05 1026.73 1026.93 1026.87 1027.11 1027.47 1027.49 1027.56 1028.18 1028.26 1028.22 1028.05 1027.75 1027.66 1027.55 1027.45 1027.21 1027.03 1026.75 1026.65 1026.63 1026.49 1026.33 1026.19 1025.94 1025.65 1025.31 1025.00 1024.61 1024.30 1024.00 1023.62
1020.08 1020.64 1021.36 1022.07 1022.39 1022.95 1023.59 1024.75 1025.54 1025.59 1026.16 1026.31 1026.76 1027.19 1027.29 1027.11 1027.44 1027.29 1027.52 1028.06 1028.12 1028.13 1028.12 1027.94 1027.89 1027.76 1027.57 1027.48 1027.33 1027.09 1026.84 1026.70 1026.55 1026.39 1026.22 1025.97 1025.65 1025.31 1024.92 1024.55 1024.19 1023.77 1023.33
1019.95 1020.58 1021.47 1021.95 1022.35 1022.83 1023.75 1024.73 1025.15 1025.96 1026.16 1026.37 1026.77 1027.43 1027.69 1027.54 1027.59 1027.44 1027.57 1027.83 1027.97 1027.97 1027.81 1027.90 1028.10 1027.86 1027.51 1027.52 1027.55 1027.28 1027.02 1026.81 1026.65 1026.42 1026.22 1025.92 1025.59 1025.19 1024.77 1024.35 1023.94 1023.46 1023.01
1019.69 1020.39 1021.22 1021.95 1022.43 1022.66 1023.41 1024.36 1024.97 1026.03 1026.51 1026.48 1027.03 1027.84 1027.83 1027.64 1027.74 1027.57 1027.45 1027.78 1027.80 1027.86 1027.86 1027.75 1027.86 1028.02 1027.65 1027.41 1027.69 1027.39 1027.23 1026.99 1026.66 1026.38 1026.11 1025.76 1025.38 1024.92 1024.50 1024.10 1023.61 1023.07 1022.78
1019.22 1020.00 1020.74 1021.52 1022.15 1022.71 1023.44 1024.19 1024.45 1025.89 1026.32 1026.39 1026.87 1027.85 1028.19 1028.23 1027.77 1027.54 1027.60 1027.64 1027.77 1027.77 1027.94 1027.67 1027.68 1027.68 1027.86 1027.69 1027.59 1027.58 1027.58 1027.12 1026.71 1026.30 1025.92 1025.52 1025.11 1024.63 1024.19 1023.67 1023.15 1022.70 1022.31
1018.80 1019.61 1020.41 1021.03 1021.86 1022.19 1022.76 1023.80 1024.07 1024.80 1025.60 1026.41 1026.45 1026.81 1028.14 1028.11 1027.98 1027.68 1027.57 1027.57 1027.59 1027.81 1027.91 1027.95 1027.66 1027.59 1027.65 1027.83 1027.65 1027.70 1027.53 1027.21 1026.65 1026.17 1025.72 1025.26 1024.81 1024.36 1023.83 1023.23 1022.76 1022.31 1021.93
1018.58 1019.32 1020.04 1020.69 1021.46 1021.90 1022.44 1023.17 1023.76 1024.23 1024.65 1025.65 1026.54 1026.56 1026.51 1027.00 1027.72 1028.28 1027.81 1027.53 1027.45 1027.55 1027.74 1027.93 1027.73 1027.66 1027.62 1027.68 1027.68 1027.57 1027.24 1026.96 1026.50 1025.97 1025.47 1025.06 1024.55 1023.99 1023.47 1023.00 1022.59 1022.13 1021.69
1018.08 1018.93 1019.58 1020.54 1021.09 1021.56 1022.18 1022.83 1023.55 1023.98 1024.13 1025.07 1025.47 1026.37 1026.84 1026.97 1027.25 1027.58 1028.11 1027.87 1027.65 1027.44 1027.47 1027.69 1027.61 1027.76 1027.63 1027.60 1027.63 1027.55 1027.14 1026.69 1026.34 1025.90 1025.42 1024.91 1024.35 1023.81 1023.33 1022.90 1022.46 1021.93 1021.37
1017.99 1018.59 1019.19 1019.97 1020.55 1021.13 1021.89 1022.52 1023.12 1023.54 1023.79 1024.34 1024.60 1025.28 1025.59 1026.29 1027.08 1027.45 1028.11 1028.31 1028.49 1027.99 1027.83 1027.83 1027.81 1027.52 1027.54 1027.49 1027.41 1027.42 1027.13 1026.66 1026.22 1025.75 1025.23 1024.64 1024.09 1023.61 1023.21 1022.73 1022.18 1021.52 1020.88
1017.18 1017.78 1018.52 1019.38 1020.20 1020.55 1021.31 1022.01 1022.74 1023.09 1023.53 1023.94 1024.23 1024.84 1025.15 1025.55 1026.01 1026.67 1027.29 1028.31 1028.69 1028.52 1028.14 1027.82 1027.74 1027.83 1027.64 1027.59 1027.55 1027.20 1027.02 1026.53 1025.99 1025.45 1024.87 1024.33 1023.89 1023.43 1022.92 1022.34 1021.74 1021.11 1020.54
1015.69 1017.07 1017.79 1018.62 1019.52 1020.18 1020.88 1021.59 1022.33 1022.75 1023.31 1023.66 1024.09 1024.45 1025.01 1025.58 1025.77 1025.96 1026.65 1027.60 1028.93 1028.91 1028.39 1027.85 1027.91 1027.74 1027.96 1027.84 1027.30 1026.84 1026.70 1026.29 1025.81 1025.27 1024.65 1024.10 1023.65 1023.03 1022.50 1021.97 1021.37 1020.74 1020.10
1015.28 1016.08 1017.13 1017.94 1018.95 1019.81 1020.46 1021.12 1022.02 1022.43 1023.08 1023.52 1024.05 1024.36 1024.80 1025.58 1025.77 1025.81 1026.18 1026.77 1027.55 1028.86 1028.74 1027.97 1027.86 1027.68 1027.94 1027.74 1027.52 1026.91 1026.35 1025.94 1025.42 1024.87 1024.36 1023.78 1023.28 1022.72 1022.15 1021.61 1021.03 1020.39 1019.66
1014.78 1015.56 1016.47 1017.52 1018.37 1019.37 1020.22 1020.87 1021.62 1022.30 1022.99 1023.45 1023.84 1024.29 1024.91 1025.47 1026.00 1026.13 1026.56 1027.00 1027.43 1027.92 1028.50 1027.82 1027.82 1027.47 1027.21 1027.52 1027.21 1026.67 1026.07 1025.52 1025.05 1024.46 1023.87 1023.20 1022.66 1022.21 1021.68 1021.10 1020.36 1019.60 1018.85
1013.94 1014.93 1015.87 1016.92 1017.80 1018.59 1019.62 1020.49 1021.08 1021.92 1022.70 1023.32 1023.65 1023.96 1024.86 1025.18 1025.76 1026.09 1026.57 1026.92 1027.52 1027.79 1028.46 1027.88 1027.99 1027.71 1027.20 1027.22 1026.82 1026.35 1025.65 1025.14 1024.58 1024.02 1023.34 1022.66 1022.05 1021.45 1020.91 1020.26 1019.52 1018.75 1017.91
1013.45 1014.23 1015.31 1016.30 1017.19 1017.89 1018.75 1019.68 1020.45 1021.27 1022.08 1022.87 1023.27 1023.96 1024.47 1024.92 1025.43 1025.75 1026.32 1026.74 1027.46 1027.51 1028.01 1028.07 1027.66 1027.37 1027.00 1026.69 1026.40 1025.86 1025.00 1024.60 1024.02 1023.33 1022.72 1022.01 1021.39 1020.87 1020.21 1019.47 1018.75 1017.92 1017.06
1012.96 1014.03 1014.69 1015.61 1016.39 1017.10 1018.03 1019.01 1019.70 1020.56 1021.29 1022.14 1022.68 1023.41 1023.77 1024.42 1025.03 1025.53 1026.07 1026.60 1027.06 1027.27 1027.55 1027.79 1027.61 1027.31 1026.69 1026.37 1025.97 1025.29 1024.50 1024.07 1023.46 1022.72 1022.10 1021.63 1020.87 1020.35 1019.63 1018.95 1018.32 1017.32 1016.29
1012.31 1013.28 1014.00 1014.68 1015.66 1016.47 1017.38 1018.20 1019.15 1019.96 1020.81 1021.52 1022.23 1022.80 1023.08 1023.71 1024.12 1024.72 1025.39 1025.95 1026.39 1026.83 1027.16 1027.51 1027.54 1027.31 1026.92 1026.00 1025.82 1025.11 1023.91 1023.56 1022.81 1022.12 1021.43 1020.97 1020.33 1019.83 1019.00 1018.10 1017.53 1016.57 1015.53
1011.52 1012.33 1013.19 1014.11 1015.03 1015.78 1016.57 1017.52 1018.55 1019.36 1020.15 1021.04 1021.72 1022.28 1022.70 1023.21 1023.45 1024.01 1024.59 1025.16 1025.71 1026.32 1026.71 1026.91 1027.23 1027.28 1026.72 1026.03 1025.82 1024.91 1024.15 1023.24 1022.23 1021.16 1020.67 1020.59 1019.64 1019.13 1018.22 1017.43 1016.55 1015.56 1014.56
1010.96 1011.88 1012.80 1013.67 1014.43 1015.13 1015.87 1016.70 1017.46 1018.51 1019.41 1020.30 1021.26 1021.82 1022.41 1022.78 1022.94 1023.30 1023.77 1024.41 1025.25 1025.54 1025.95 1026.31 1026.57 1026.70 1026.20 1025.96 1025.50 1024.90 1024.02 1023.32 1022.00 1020.89 1020.16 1019.32 1018.99 1017.76 1016.98 1016.42 1015.66 1014.58 1013.32
1010.52 1011.39 1012.27 1013.24 1013.92 1014.53 1015.24 1015.91 1016.87 1017.89 1018.73 1019.59 1020.40 1021.39 1022.05 1022.33 1022.60 1023.14 1023.38 1023.77 1023.95 1024.55 1024.96 1025.34 1025.75 1026.03 1025.83 1025.37 1025.13 1024.48 1023.82 1023.41 1022.67 1021.13 1020.19 1018.14 1017.91 1016.55 1015.88 1015.24 1014.45 1013.41 1012.07
1010.07 1010.90 1011.84 1012.58 1013.39 1014.02 1014.45 1015.46 1016.55 1017.63 1018.28 1019.01 1019.78 1020.62 1021.37 1021.90 1022.36 1022.88 1023.37 1023.79 1024.14 1024.56 1024.95 1025.17 1025.41 1025.48 1025.38 1025.00 1024.83 1024.04 1023.40 1022.98 1022.26 1021.44 1020.44 1018.06 1016.87 1015.57 1014.45 1013.92 1012.85 1012.03 1010.81
1010.08 1010.90 1011.57 1012.20 1013.01 1013.60 1014.14 1015.13 1016.17 1017.40 1017.90 1018.69 1019.35 1020.12 1020.88 1021.76 1021.99 1022.52 1023.22 1023.82 1024.08 1024.42 1024.46 1024.69 1024.76 1024.70 1024.57 1024.39 1024.08 1023.65 1023.30 1022.95 1021.71 1020.92 1019.76 1019.31 1017.45 1015.07 1013.24 1011.83 1011.24 1010.78 1009.89
1009.85 1010.70 1011.41 1011.98 1012.46 1013.35 1013.99 1014.71 1015.69 1016.77 1017.52 1018.34 1019.29 1020.04 1020.61 1021.27 1021.69 1022.11 1022.90 1023.42 1023.92 1024.16 1024.55 1024.84 1024.95 1024.82 1024.69 1024.43 1023.77 1023.66 1023.26 1022.95 1022.36 1020.59 1019.62 1019.11 1017.93 1017.47 1013.02 1010.53 1010.29 1009.49 1008.31
Thickness
5653 5652 5654 5651 5651 5647 5647 5649 5648 5644 5643 5645 5639 5636 5632 5630 5628 5624 5621 5617 5617 5618 5617 5620 5621 5619 5617 5615 5614 5613 5613 5613 5612 5612 5612 5613 5614 5615 5616 5617 5619 5621 5622
5649 5648 5648 5646 5646 5644 5642 5644 5642 5639 5641 5638 5633 5628 5629 5626 5624 5623 5616 5613 5612 5612 5612 5613 5614 5614 5613 5611 5609 5608 5607 5606 5607 5607 5607 5607 5608 5609 5610 5611 5613 5614 5615
5644 5643 5644 5641 5642 5640 5638 5637 5632 5633 5637 5631 5627 5624 5622 5618 5617 5618 5615 5609 5606 5607 5607 5608 5608 5608 5608 5607 5606 5604 5603 5602 5602 5602 5601 5601 5602 5604 5605 5606 5607 5608 5610
5639 5640 5639 5638 5639 5636 5633 5629 5627 5625 5627 5627 5620 5618 5619 5615 5612 5612 5610 5604 5602 5602 5602 5603 5603 5603 5602 5601 5600 5600 5600 5598 5597 5596 5596 5596 5597 5597 5598 5600 5601 5601 5603
5634 5634 5634 5634 5635 5633 5629 5622 5619 5623 5619 5620 5616 5613 5612 5613 5609 5609 5607 5601 5599 5599 5599 5598 5599 5598 5598 5596 5595 5595 5594 5593 5592 5591 5591 5591 5591 5592 5592 5593 5593 5594 5596
5628 5629 5627 5629 5629 5628 5623 5618 5619 5614 5615 5614 5614 5607 5604 5605 5605 5606 5603 5599 5597 5596 5598 5596 5594 5595 5595 5593 5590 5589 5589 5587 5586 5585 5585 5585 5585 5585 5586 5586 5587 5588 5590
5625 5625 5623 5623 5622 5624 5621 5616 5615 5607 5607 5608 5606 5599 5598 5600 5598 5600 5601 5598 5595 5593 5592 5592 5591 5589 5591 5590 5585 5584 5582 5580 5579 5579 5578 5578 5578 5579 5579 5579 5580 5581 5580
5622 5621 5621 5620 5617 5617 5615 5611 5613 5603 5603 5603 5602 5593 5592 5590 5592 5595 5594 5592 5590 5589 5586 5587 5587 5586 5583 5583 5581 5577 5573 5573 5572 5572 5572 5572 5572 5573 5573 5573 5573 5573 5572
5619 5617 5617 5616 5613 5614 5614 5608 5610 5606 5602 5598 5598 5597 5585 5589 5583 5587 5588 5587 5586 5584 5581 5579 5580 5579 5577 5575 5574 5570 5565 5564 5565 5565 5566 5566 5566 5565 5566 5566 5566 5565 5563
5613 5613 5612 5611 5609 5609 5610 5606 5605 5605 5604 5597 5591 5592 5592 5588 5584 5584 5580 5581 5581 5579 5576 5573 5573 5572 5570 5568 5564 5562 5561 5559 5558 5559 5559 5558 5558 5558 5557 5556 5554 5553 5552
5608 5609 5608 5605 5605 5605 5604 5603 5600 5599 5601 5595 5593 5587 5583 5581 5577 5576 5571 5574 5573 5573 5572 5568 5567 5564 5562 5560 5557 5554 5553 5552 5550 5549 5549 5548 5547 5545 5543 5541 5540 5540 5540
5602 5604 5604 5601 5600 5599 5599 5597 5595 5595 5596 5594 5593 5589 5586 5582 5573 5570 5565 5563 5560 5562 5561 5560 5558 5558 5555 5552 5549 5545 5544 5543 5542 5540 5539 5538 5536 5535 5533 5532 5531 5531 5531
5600 5602 5601 5598 5594 5595 5592 5589 5589 5590 5590 5589 5588 5585 5582 5578 5574 5569 5565 5555 5553 5552 5553 5553 5551 5547 5545 5544 5541 5538 5535 5535 5534 5532 5531 5529 5527 5525 5523 5522 5522 5521 5520
5603 5595 5594 5591 5587 5586 5585 5584 5583 5584 5583 5582 5581 5579 5575 5569 5568 5567 5562 5552 5537 5541 5544 5546 5541 5540 5533 5531 5531 5530 5529 5526 5524 5522 5520 5519 5516 5515 5514 5513 5511 5510 5508
5594 5595 5592 5589 5584 5581 5580 5579 5576 5578 5575 5575 5572 5571 5568 5561 5560 5561 5557 5552 5543 5526 5534 5536 5533 5530 5523 5521 5519 5520 5520 5517 5514 5513 5511 5509 5507 5505 5503 5501 5498 5496 5494
5587 5589 5586 5583 5579 5575 5573 5572 5570 5569 5566 5565 5565 5563 5558 5554 5549 5549 5545 5540 5536 5529 5521 5527 5524 5524 5521 5512 5509 5509 5511 5509 5506 5504 5501 5500 5497 5494 5492 5489 5487 5485 5482
5586 5584 5580 5576 5574 5571 5567 5565 5565 5561 5559 5556 5556 5556 5549 5547 5542 5539 5535 5532 5526 5523 5510 5516 5511 5510 5509 5505 5502 5501 5501 5500 5498 5494 5492 5490 5488 5486 5482 5479 5476 5474 5472
5580 5579 5574 5572 5570 5569 5566 5562 5560 5558 5554 5550 5548 5545 5543 5541 5536 5532 5527 5524 5517 5515 5507 5500 5504 5501 5499 5497 5495 5494 5494 5491 5490 5488 5485 5483 5479 5475 5472 5468 5466 5463 5460
5573 5571 5571 5568 5567 5566 5562 5557 5555 5551 5550 5545 5542 5539 5538 5533 5529 5523 5518 5513 5509 5507 5501 5494 5493 5489 5490 5488 5487 5487 5488 5485 5482 5480 5477 5473 5470 5465 5462 5458 5453 5450 5446
5566 5566 5565 5564 5561 5560 5555 5552 5548 5545 5541 5537 5534 5532 5532 5528 5524 5517 5512 5506 5501 5498 5493 5486 5481 5478 5477 5479 5475 5477 5482 5476 5476 5472 5470 5465 5461 5455 5452 5450 5445 5438 5434
5561 5560 5559 5559 5556 5554 5551 5546 5541 5538 5533 5529 5527 5525 5523 5519 5516 5511 5504 5500 5494 5487 5483 5477 5470 5466 5465 5466 5461 5463 5464 5466 5468 5468 5466 5458 5455 5450 5447 5443 5438 5430 5422
5555 5553 5550 5549 5548 5547 5544 5541 5538 5532 5527 5523 5518 5516 5512 5509 5508 5503 5498 5493 5485 5479 5471 5465 5460 5457 5456 5452 5449 5448 5449 5449 5457 5460 5458 5457 5445 5449 5444 5436 5428 5419 5411
5547 5546 5543 5539 5540 5539 5537 5536 5531 5524 5521 5517 5513 5506 5502 5500 5497 5492 5488 5484 5480 5473 5467 5461 5453 5447 5444 5441 5438 5438 5436 5434 5433 5440 5440 5453 5441 5445 5437 5431 5420 5410 5402
5542 5538 5533 5531 5528 5529 5531 5527 5521 5514 5512 5510 5505 5500 5495 5490 5485 5480 5474 5469 5465 5462 5456 5449 5444 5437 5433 5430 5425 5426 5426 5424 5424 5421 5416 5436 5435 5439 5437 5427 5416 5404 5395
5529 5528 5526 5524 5520 5519 5520 5517 5512 5503 5503 5499 5496 5492 5486 5477 5474 5469 5461 5455 5453 5449 5444 5437 5432 5427 5422 5417 5415 5416 5412 5409 5414 5411 5405 5404 5410 5426 5434 5429 5415 5400 5386
5519 5516 5514 5514 5513 5509 5509 5508 5504 5497 5494 5490 5484 5478 5475 5468 5463 5459 5449 5446 5440 5436 5430 5424 5418 5414 5410 5406 5404 5401 5399 5394 5391 5398 5389 5390 5386 5368 5413 5427 5405 5394 5384